TimeEDT,TemperatureF,Dew PointF,Humidity,Sea Level PressureIn,VisibilityMPH,Wind Direction,Wind SpeedMPH,Gust SpeedMPH,PrecipitationIn,Events,Conditions,WindDirDegrees,DateUTC
12:53 AM,59.0,48.0,67,30.15,10.0,SSW,5.8,-,N/A,,Clear,200,2013-05-15 04:53:00
1:53 AM,57.9,48.0,70,30.14,10.0,SSW,3.5,-,N/A,,Clear,200,2013-05-15 05:53:00
2:53 AM,57.0,46.9,69,30.13,10.0,SSW,4.6,-,N/A,,Clear,200,2013-05-15 06:53:00
3:53 AM,57.0,46.0,67,30.13,10.0,SSW,5.8,-,N/A,,Clear,210,2013-05-15 07:53:00
4:53 AM,57.0,46.0,67,30.13,10.0,SSW,5.8,-,N/A,,Clear,210,2013-05-15 08:53:00
5:53 AM,55.0,46.9,74,30.14,10.0,South,3.5,-,N/A,,Clear,190,2013-05-15 09:53:00
6:53 AM,54.0,48.0,80,30.15,10.0,SW,5.8,-,N/A,,Clear,220,2013-05-15 10:53:00
7:53 AM,61.0,48.0,62,30.16,10.0,SW,5.8,-,N/A,,Clear,230,2013-05-15 11:53:00
8:53 AM,66.0,48.9,54,30.17,10.0,WSW,11.5,-,N/A,,Clear,240,2013-05-15 12:53:00
9:53 AM,73.0,51.1,46,30.16,10.0,SW,12.7,-,N/A,,Clear,230,2013-05-15 13:53:00
10:53 AM,78.1,53.1,42,30.13,10.0,SW,15.0,-,N/A,,Clear,230,2013-05-15 14:53:00
11:53 AM,81.0,55.0,41,30.12,10.0,West,12.7,20.7,N/A,,Clear,260,2013-05-15 15:53:00
12:53 PM,84.0,55.0,37,30.10,10.0,West,15.0,21.9,N/A,,Clear,270,2013-05-15 16:53:00
1:53 PM,84.9,55.9,37,30.07,10.0,SW,11.5,-,N/A,,Clear,230,2013-05-15 17:53:00
2:53 PM,87.1,57.0,36,30.05,9.0,WSW,15.0,-,N/A,,Clear,240,2013-05-15 18:53:00
3:53 PM,88.0,57.0,35,30.02,10.0,WSW,11.5,17.3,N/A,,Clear,240,2013-05-15 19:53:00
4:53 PM,89.1,57.0,34,30.01,10.0,WSW,9.2,17.3,N/A,,Clear,250,2013-05-15 20:53:00
5:53 PM,89.1,57.0,34,29.99,10.0,SW,15.0,19.6,N/A,,Clear,220,2013-05-15 21:53:00
6:53 PM,87.1,55.9,35,29.99,10.0,WSW,10.4,-,N/A,,Clear,240,2013-05-15 22:53:00
7:53 PM,82.0,57.9,44,29.99,10.0,SW,5.8,-,N/A,,Clear,230,2013-05-15 23:53:00
8:53 PM,78.1,57.0,48,30.00,10.0,SSW,5.8,-,N/A,,Clear,210,2013-05-16 00:53:00
9:53 PM,72.0,57.9,61,30.02,10.0,SW,5.8,-,N/A,,Clear,220,2013-05-16 01:53:00
10:53 PM,72.0,57.0,59,30.02,10.0,SSW,3.5,-,N/A,,Clear,210,2013-05-16 02:53:00
11:53 PM,70.0,57.0,63,30.01,10.0,South,5.8,-,N/A,,Clear,180,2013-05-16 03:53:00